Location: Albany
(35.0000°S, 118.0000°E)
Time: 01:26:35
(UTC-04:00)

CZ-4B R/B - Visible Passes

Search period start: 25 September 2016 00:00
Search period end: 05 October 2016 00:00
Orbit: 489 x 658 km, 97.7° (Epoch: 24 September)

Date Brightness Start Highest point End Pass type
(mag) Time Alt. Az. Time Alt. Az. Time Alt. Az.
28 Sep 5.9 14:57:32 10° S 14:57:32 10° S 14:57:36 10° S visible
29 Sep 5.8 15:00:14 12° S 15:00:14 12° S 15:00:30 10° S visible
30 Sep 5.7 15:02:57 13° S 15:02:57 13° S 15:03:23 10° S visible
01 Oct 5.6 15:05:40 14° S 15:05:40 14° S 15:06:15 10° S visible
02 Oct 5.5 15:08:23 15° S 15:08:23 15° S 15:09:06 10° S visible
03 Oct 5.4 15:11:05 16° S 15:11:05 16° S 15:11:58 10° S visible
04 Oct 5.3 15:13:48 17° S 15:13:48 17° S 15:14:48 10° S visible
